Find DMSP F-2

NORAD ID: 10033 Int'l Des: 1977-044 Owner: SAMSO Country: US operational
LEOCIRCULARRETROGRADE

Current View

Loading 3D Globe...

About DMSP F-2

Description loading...

Upcoming Passes

Passes for default location (London). Set your location on the main map for personalized predictions.

Altitude History

Loading altitude history...

Two-Line Element Set

1 10033U 77044A 26150.60739975 .00000287 00000-0 12559-3 0 9991
2 10033 99.1180 198.1338 0036661 279.5852 80.1188 14.31453994365643
Epoch: May 30, 2026 • Age: 12 hours

Current Status

Altitude 814.7 km
Velocity 7.44 km/s
Sub-Earth Point 44.85°N, 94.93°E
Launch Date Jun 5, 1977
Age 48.9 years
Type other

Technical Details

Classification Payload
Mass 447.00 kg
Dry Mass 447.00 kg
Total Mass 1177.00 kg
Length 6.10 m
Diameter 1.50 m
Span 6.10 m
Shape Box + Pan
Manufacturer RCA
Bus Type Block 5D
Phase Status Attached in Orbit
Owner/State SAMSO/US

Most Searched